Regional Weather Roundup
Issued by NWS

Home | Current Version | Previous Version | Graphics & Text | Print | Product List | Glossary On
Versions: 1 2 3 4 5 6 7 8 9 10 11 12 13 14 15 16 17 18 19 20 21 22 23 24 25 26 27 28 29 30 31 32 33 34 35 36 37 38 39 40 41 42 43 44 45 46 47 48 49 50
000
ASUS43 KMKX 022100
RWRWI

WISCONSIN REGIONAL WEATHER ROUNDUP
NATIONAL WEATHER SERVICE MILWAUKEE/SULLIVAN WI
300 PM CST FRI DEC 02 2016

NOTE: "FAIR" INDICATES FEW OR NO CLOUDS BELOW 12,000 FEET WITH NO
SIGNIFICANT WEATHER AND/OR OBSTRUCTIONS TO VISIBILITY.

WIZ001-002-006>008-014>016-023>028-022200-
NORTHWEST WISCONSIN

CITY           SKY/WX    TMP DP  RH WIND       PRES   REMARKS
SUPERIOR ARPT  CLOUDY    30  23  74 NW5       30.24R WCI  25
ASHLAND        CLOUDY    31  25  78 W12G17    30.22R WCI  22
HAYWARD        CLOUDY    29  22  75 W3        30.21R
SIREN          CLOUDY    30  22  73 NW6       30.23R WCI  24
CUMBERLAND     CLOUDY    30  23  74 NW5       30.21R WCI  25
RICE LAKE      CLOUDY    31  24  74 N5        30.23R WCI  26
CHETEK         CLOUDY    31  25  77 NW3       30.22R
LADYSMITH      CLOUDY    31  25  76 NW6       30.22R WCI  26
EAU CLAIRE     NOT AVBL
MENOMONIE      CLOUDY    33  25  73 NW7       30.23S WCI  26
NEW RICHMOND   CLOUDY    31  25  77 NW7       30.23R WCI  25
OSCEOLA        NOT AVBL
$$

WIZ003>005-009-010-017-018-022200-
NORTH CENTRAL WISCONSIN

CITY           SKY/WX    TMP DP  RH WIND       PRES   REMARKS
MANITOWISH WTR CLOUDY    29  29  99 W5        30.16R WCI  24
ARBOR VITAE    CLOUDY    32  28  84 NW5       30.15R WCI  27
WOODRUFF       CLOUDY    32  28  84 NW5       30.15R WCI  27
RHINELANDER    CLOUDY    32  26  78 W7        30.16R WCI  26
EAGLE RIVER    CLOUDY    30  29  98 NW8       30.15R FOG     WCI  22
LAND O LAKES   CLOUDY    31  28  92 NW5       30.16R FOG     WCI  26
PHILLIPS       CLOUDY    29  25  83 NW3       30.17R
TOMAHAWK       CLOUDY    30  24  78 W5        30.18R WCI  25
MEDFORD        CLOUDY    30  24  78 W5        30.17S WCI  25
MERRILL        CLOUDY    32  26  77 NW5       30.19R WCI  27
$$

WIZ029-030-035-036-043>047-022200-
CENTRAL WISCONSIN

CITY           SKY/WX    TMP DP  RH WIND       PRES   REMARKS
WAUSAU         CLOUDY    32  24  72 NW8       30.17R WCI  25
MOSINEE        NOT AVBL
MARSHFIELD     CLOUDY    30  22  72 NW12      30.19R WCI  20
STEVENS POINT  CLOUDY    30  22  70 W7        30.20R WCI  24
WAUPACA        CLOUDY    35  25  67 NW8       30.21R WCI  28
WAUTOMA        CLOUDY    33  23  66 NW8       30.22R WCI  26
WISC RAPIDS    CLOUDY    32  23  69 NW9       30.22R WCI  24
CAMP DOUGLAS   NOT AVBL
$$

WIZ011>013-019>022-031-037>040-048>050-022200-
NORTHEAST WISCONSIN

CITY           SKY/WX    TMP DP  RH WIND       PRES   REMARKS
ANTIGO         CLOUDY    31  25  77 NW7       30.16R WCI  24
SHAWANO        CLOUDY    37  27  68 W7        30.19R WCI  31
OCONTO         CLOUDY    37  27  69 NW6       30.16R WCI  32
STURGEON BAY   CLOUDY    36  28  73 W8        30.17R WCI  30
GREEN BAY      CLOUDY    37  29  72 NW12      30.18R WCI  29
MANITOWOC      NOT AVBL
APPLETON       CLOUDY    34  23  64 W10       30.17R WCI  26
CLINTONVILLE   CLOUDY    34  25  69 NW6       30.19R WCI  29
OSHKOSH        CLOUDY    33  24  69 W10       30.19R WCI  25
$$

WIZ032>034-041-042-053>061-022200-
SOUTHWEST WISCONSIN

CITY           SKY/WX    TMP DP  RH WIND       PRES   REMARKS
LA CROSSE      CLOUDY    35  23  61 NW6       30.25R WCI  30
SPARTA         CLOUDY    32  24  71 NW6       30.24R WCI  26
VIROQUA        CLOUDY    31  24  76 W6        30.22R WCI  25
BOSCOBEL       CLOUDY    35  23  61 NW5       30.25R WCI  31
PRAIRIE DU CHI CLOUDY    34  23  64 NW8       30.25R WCI  27
PLATTEVILLE    CLOUDY    33  27  77 NW8       30.23R WCI  26
$$

WIZ056-057-062-063-064-067-068-022200-
SOUTH CENTRAL WISCONSIN

CITY           SKY/WX    TMP DP  RH WIND       PRES   REMARKS
REEDSBURG      CLOUDY    32  23  70 NW8       30.22R WCI  25
BARABOO/DELLS  CLOUDY    32  23  69 N5        30.21R WCI  27
LONE ROCK      CLOUDY    34  23  64 W9        30.24R WCI  27
MINERAL POINT  CLOUDY    34  28  80 NW9       30.21R WCI  26
MADISON        CLOUDY    32  23  69 NW6       30.22R WCI  26
MIDDLETON      CLOUDY    34  25  70 NW12      30.22S WCI  25
WATERTOWN      CLOUDY    33  24  69 NW7       30.20R WCI  27
MONROE         CLOUDY    34  23  64 NW8       30.21R WCI  27
JANESVILLE     CLOUDY    36  25  64 NW8       30.21R WCI  29
$$

WIZ051-052-058>065-066-070>072-022200-
SOUTHEAST WISCONSIN

CITY           SKY/WX    TMP DP  RH WIND       PRES   REMARKS
MILWAUKEE      CLOUDY    36  23  59 NW10      30.21R WCI  28
WAUKESHA       CLOUDY    32  23  69 W8        30.21R WCI  25
MILWAUKEE/TIMM CLOUDY    34  21  60 NW9       30.22R WCI  26
RACINE         CLOUDY    35  23  61 N9        30.23R WCI  28
BURLINGTON     CLOUDY    34  25  69 NW10      30.21R WCI  26
KENOSHA        CLOUDY    35  24  64 NW9       30.22R WCI  28
FOND DU LAC    CLOUDY    34  23  64 NW9       30.20R WCI  27
SHEBOYGAN      CLOUDY    34  25  69 NW9       30.19R WCI  27
WEST BEND      CLOUDY    32  25  74 W9        30.20R WCI  24
JUNEAU         CLOUDY    32  24  72 NW8       30.21R WCI  25
$$

LSZ147-162-022200-
LAKE SUPERIOR

STATION/POSITION TIME  TEMP    WIND        PRES    WAVE
                       AIR SEA DIR/SP/G            HT/PER
                 (UTC) (F)     (DEG/KT/KT) (MB)    (FT/S)
DEVILS ISLAND    2000   32     240/ 14/ 16 1023.2R
PORT WING        2030   32     260/  7/  9 1023.4R
SAXON HARBOR     2030   33     290/  5/  7 1022.7R
$$

LMZ867-665-643>646-022200-
LAKE MICHIGAN

STATION/POSITION TIME  TEMP    WIND        PRES    WAVE
                       AIR SEA DIR/SP/G            HT/PER
                 (UTC) (F)     (DEG/KT/KT) (MB)    (FT/S)
CHAMBERS ISLAND  2040   37     240/  5/  9 1020.7R
NORTHPORT PIER   2040   37     300/  8/ 14 1020.7R
SISTER BAY       2008   37     310/ 15/ 17   N/A
ALGOMA LAKESHORE 2021          310/ 10/ 12   N/A
KEWAUNEE LAKESHO 2030   35     290/  8/ 12 1020.9R
SHEBOYGAN LAKESH 2000   34     300/ 11/ 15 1022.3R
PORT WASHINGTON  2040   35     310/  5/ 10 1023.7R
MILWAUKEE LAKESH 2030   36     290/  7/  9   N/A
S MID LAKE BUOY  1950   37 49  310/ 12/ 16 1021.9R   3/ 4
KENOSHA   LAKESH 2000   35     300/  8/ 11 1022.7
$$

TC  - TEMPERATURE IN CELSIUS
VSB - VISIBILITY IN STATUTE MILES
WCI - WIND CHILL INDEX
HX  - HEAT INDEX




USA.gov is the U.S. government's official web portal to all federal, state and local government web resources and services.